Погода в Гамильтоне

Великобритания     55°46′42″N   4°03′18″W
темп.,
°C
ветер,
м/с
пор.,
м/с
влажн.,
%
обл.,
%
осадки,
мм/ч
давл.,
гПа
погр.,
м
19 января, ср
ср1900:00+7юз81591100 0.3 1022910
03:00+7юз91890100 0.6 10181365
06:00+6з81482100 2.4 10191134
09:00+4зсз612777 0.0 1023847
12:00+5зсз6127391 0.1 10261327
15:00+5сз612715 0.0 10261197
18:00+4зсз510755 0.0 1029437
21:00+3зсз49775 0.0 1032237
20 января, чт
чт2000:00+1ссз23869 0.0 103555
03:000с11845 0.0 103611
06:000зюз11825 0.0 103811
09:000зюз11815 0.0 103923
12:00+2зюз246849 0.0 1039303
15:00+3зюз257197 0.0 1039286
18:00+2зюз248086 0.0 1038110
21:00+1зюз22915 0.0 103937
21 января, пт
пт2100:00+1юз229314 0.0 103827
03:00+1юз229517 0.0 103828
06:00+1зюз239761 0.0 103753
09:00+1юз229611 0.0 103738
12:00+5зюз488818 0.0 1037415
15:00+6з6128618 0.0 1036585
18:00+5зюз613881 0.0 1036491
21:00+4з61387100 0.0 1036522
22 января, сб
сб2200:00+5з6138271 0.0 1035602
03:00+6з61175100 0.0 1035742
06:00+6зюз51283100 0.0 1034582
09:00+5зюз41191100 0.0 1035504
12:00+7зюз4118785 0.0 1035616
15:00+7зюз41090100 0.0 1035526
18:00+6юз3992100 0.0 1035422
21:00+6юз3893100 0.0 1035349
23 января, вс
вс2300:00+5юз3694100 0.0 1035234
03:00+6юз269376 0.0 1034199
06:00+4юз359419 0.0 1034122
09:00+3юз249310 0.0 1034120
12:00+6юз48846 0.0 1033505
15:00+5зюз488610 0.0 1033594
18:00+3юз39926 0.0 1033297
21:00+3юз4119113 0.0 1033398